Location: Moscow
(38.8570°N, 84.2291°W)
Time: 04:54:45
(UTC+00:00)

USA 215 - Pass Details

Date: 15 November 2025
Orbit: 1101 x 1106 km, 123.0° (Epoch: 02 December)

Event Time Altitude Azimuth Distance (km) Brightness Sun altitude
Rises 23:32:22 0° 137° (SE) 3,908 5.9 -13.7°
Reaches altitude 10° 23:34:50 10° 139° (SE) 2,953 5.2 -14.1°
Maximum altitude 23:41:22 78° 225° (SW) 1,128 3.4 -15.4°
Drops below altitude 10° 23:47:57 10° 312° (NW) 2,969 6.0 -16.6°
Sets 23:50:26 0° 314° (NW) 3,930 6.7 -17.1°
